Overview Statistics Trail Chart Weather Telemetry Raw packets
 

This is the latest recevied weather packets stored in our database for station/object SP3VSS-13. If no packets are shown the sender has not sent any weather packets the latest 10 day(s).

<< 6 7 8 9 10 11 12 >>
Time Temp. Humidity Pressure Rain* Wind** Luminosity Snow
1788434111 21.67° C 55% 1004.6 hPa - - - -
1788433210 22.22° C 54% 1004.7 hPa - - - -
1788432309 22.22° C 60% 1004.8 hPa - - - -
1788431408 22.22° C 60% 1005 hPa - - - -
1788430507 22.22° C 57% 1005 hPa - - - -
1788429606 22.22° C 57% 1005.1 hPa - - - -
1788428705 22.78° C 58% 1005.2 hPa - - - -
1788427804 22.78° C 58% 1005.3 hPa - - - -
1788426903 23.33° C 62% 1005.4 hPa - - - -
1788426002 23.33° C 61% 1005.4 hPa - - - -
1788425100 23.33° C 58% 1005.5 hPa - - - -
1788424199 20° C 62% 1005.6 hPa - - - -
1788423299 20° C 62% 1005.7 hPa - - - -
1788422398 20° C 62% 1005.6 hPa - - - -
1788421497 20° C 62% 1005.8 hPa - - - -
1788420596 20° C 62% 1005.8 hPa - - - -
1788419695 20° C 62% 1005.9 hPa - - - -
1788418794 20° C 62% 1005.9 hPa - - - -
1788417893 20° C 62% 1005.8 hPa - - - -
1788416992 20° C 62% 1005.9 hPa - - - -
1788416091 20° C 62% 1006 hPa - - - -
1788415190 20° C 62% 1006.1 hPa - - - -
1788414289 20° C 62% 1006.1 hPa - - - -
1788413388 20° C 62% 1006.2 hPa - - - -
1788412487 20° C 62% 1006.3 hPa - - - -

* Rain since midnight (hover to see other rain measurements)
** Current wind speed in m/s (hover to see current wind gust speed)